Location: Lombard
(41.8800°N, 88.0080°W)
Time: 18:49:41
(UTC-06:00)

Vanguard 3 - Pass Details

Date: 11 December 2023
Orbit: 508 x 3239 km, 33.4° (Epoch: 23 February)

Event Time Altitude Azimuth Distance (km) Brightness Sun altitude
Rises 20:10:49 0° 245° (WSW) 7,088 12.6 -41.9°
Reaches altitude 10° 20:16:03 10° 241° (WSW) 5,875 12.0 -42.8°
Enters shadow 20:30:18 51° 196° (SSW) 2,780 9.6 -45.5°
